| time (UTC) | temp C | wind direction | speed KPH | gust KPH | rain 1hr cm | rain 24hr cm | rain mn cm | humidity % | barometer mb |
| 20260906231021 | 37 | 182 | 4.8 | 12.9 | 0.00 | 0.00 | 0.00 | 39 | 1012.7 |
| 20260906230018 | 37 | 197 | 3.2 | 8.0 | 0.00 | 0.00 | 0.00 | 39 | 1012.7 |
| 20260906225018 | 37 | 200 | 3.2 | 9.7 | 0.00 | 0.00 | 0.00 | 39 | 1012.8 |
| 20260906224039 | 37 | 211 | 4.8 | 9.7 | 0.00 | 0.00 | 0.00 | 40 | 1012.8 |
| 20260906223042 | 37 | 181 | 4.8 | 12.9 | 0.00 | 0.00 | 0.00 | 39 | 1012.8 |
| 20260906222019 | 37 | 177 | 4.8 | 12.9 | 0.00 | 0.00 | 0.00 | 39 | 1012.9 |
| 20260906221019 | 37 | 157 | 4.8 | 12.9 | 0.00 | 0.00 | 0.00 | 38 | 1012.8 |
| 20260906220019 | 37 | 245 | 4.8 | 9.7 | 0.00 | 0.00 | 0.00 | 39 | 1012.8 |
| 20260906215019 | 37 | 155 | 4.8 | 9.7 | 0.00 | 0.00 | 0.00 | 39 | 1012.8 |
| 20260906214020 | 37 | 208 | 3.2 | 9.7 | 0.00 | 0.00 | 0.00 | 39 | 1012.9 |
| 20260906213020 | 37 | 189 | 4.8 | 9.7 | 0.00 | 0.00 | 0.00 | 38 | 1013.1 |
| 20260906212020 | 37 | 168 | 4.8 | 12.9 | 0.00 | 0.00 | 0.00 | 38 | 1013.2 |
| 20260906211020 | 38 | 197 | 4.8 | 11.3 | 0.00 | 0.00 | 0.00 | 39 | 1013.3 |
| 20260906210020 | 37 | 210 | 4.8 | 11.3 | 0.00 | 0.00 | 0.00 | 39 | 1013.5 |
| 20260906205020 | 37 | 181 | 4.8 | 9.7 | 0.00 | 0.00 | 0.00 | 41 | 1013.7 |
| 20260906204038 | 37 | 167 | 6.4 | 11.3 | 0.00 | 0.00 | 0.00 | 41 | 1013.8 |
| 20260906203020 | 36 | 181 | 4.8 | 11.3 | 0.00 | 0.00 | 0.00 | 42 | 1013.9 |
| 20260906202021 | 37 | 186 | 4.8 | 14.5 | 0.00 | 0.00 | 0.00 | 41 | 1014.0 |
| 20260906201022 | 37 | 192 | 4.8 | 11.3 | 0.00 | 0.00 | 0.00 | 41 | 1014.1 |
| 20260906200019 | 37 | 221 | 4.8 | 11.3 | 0.00 | 0.00 | 0.00 | 42 | 1014.2 |
| 20260906195018 | 36 | 192 | 4.8 | 12.9 | 0.00 | 0.00 | 0.00 | 43 | 1014.3 |
| 20260906194018 | 36 | 216 | 4.8 | 9.7 | 0.00 | 0.00 | 0.00 | 45 | 1014.4 |
| 20260906193019 | 36 | 193 | 4.8 | 9.7 | 0.00 | 0.00 | 0.00 | 44 | 1014.6 |
| 20260906192019 | 36 | 159 | 6.4 | 12.9 | 0.00 | 0.00 | 0.00 | 44 | 1014.6 |
| 20260906191019 | 36 | 200 | 4.8 | 17.7 | 0.00 | 0.00 | 0.00 | 45 | 1014.8 |
| 20260906190019 | 36 | 188 | 4.8 | 12.9 | 0.00 | 0.00 | 0.00 | 44 | 1014.8 |
| 20260906185019 | 36 | 209 | 4.8 | 11.3 | 0.00 | 0.00 | 0.00 | 45 | 1014.9 |
| 20260906184019 | 36 | 172 | 6.4 | 14.5 | 0.00 | 0.00 | 0.00 | 45 | 1015.1 |
| 20260906183019 | 35 | 198 | 6.4 | 14.5 | 0.00 | 0.00 | 0.00 | 45 | 1015.1 |
| 20260906182020 | 36 | 170 | 6.4 | 12.9 | 0.00 | 0.00 | 0.00 | 44 | 1015.3 |
| 20260906181020 | 36 | 206 | 4.8 | 12.9 | 0.00 | 0.00 | 0.00 | 44 | 1015.4 |
| 20260906180020 | 35 | 202 | 6.4 | 12.9 | 0.00 | 0.00 | 0.00 | 46 | 1015.5 |
| 20260906175020 | 35 | 196 | 4.8 | 12.9 | 0.00 | 0.00 | 0.00 | 47 | 1015.7 |
| 20260906174021 | 35 | 216 | 4.8 | 9.7 | 0.00 | 0.00 | 0.00 | 47 | 1015.8 |
| 20260906173018 | 35 | 202 | 4.8 | 9.7 | 0.00 | 0.00 | 0.00 | 47 | 1015.9 |
| 20260906172021 | 35 | 222 | 3.2 | 9.7 | 0.00 | 0.00 | 0.00 | 49 | 1016.1 |
| 20260906171021 | 35 | 217 | 4.8 | 11.3 | 0.00 | 0.00 | 0.00 | 49 | 1016.2 |
| 20260906170021 | 35 | 248 | 3.2 | 8.0 | 0.00 | 0.00 | 0.00 | 48 | 1016.3 |
| 20260906165038 | 35 | 226 | 3.2 | 9.7 | 0.00 | 0.00 | 0.00 | 48 | 1016.3 |
| 20260906164038 | 34 | 283 | 3.2 | 11.3 | 0.00 | 0.00 | 0.00 | 52 | 1016.4 |
| 20260906163021 | 33 | 196 | 3.2 | 9.7 | 0.00 | 0.00 | 0.00 | 52 | 1016.4 |
| 20260906162019 | 33 | 152 | 4.8 | 11.3 | 0.00 | 0.00 | 0.00 | 53 | 1016.3 |
| 20260906161019 | 33 | 217 | 4.8 | 11.3 | 0.00 | 0.00 | 0.00 | 54 | 1016.3 |
| 20260906160019 | 32 | 161 | 4.8 | 11.3 | 0.00 | 0.00 | 0.00 | 55 | 1016.3 |
| 20260906155019 | 32 | 172 | 4.8 | 9.7 | 0.00 | 0.00 | 0.00 | 55 | 1016.3 |
| 20260906154019 | 32 | 168 | 3.2 | 9.7 | 0.00 | 0.00 | 0.00 | 56 | 1016.3 |
| 20260906153037 | 32 | 186 | 4.8 | 8.0 | 0.00 | 0.00 | 0.00 | 58 | 1016.2 |
| 20260906152019 | 32 | 235 | 3.2 | 9.7 | 0.00 | 0.00 | 0.00 | 60 | 1016.1 |
| 20260906151040 | 32 | 197 | 3.2 | 11.3 | 0.00 | 0.00 | 0.00 | 61 | 1016.0 |
| 20260906150020 | 32 | 201 | 3.2 | 9.7 | 0.00 | 0.00 | 0.00 | 62 | 1016.0 |
| 20260906145020 | 32 | 159 | 1.6 | 6.4 | 0.00 | 0.00 | 0.00 | 61 | 1016.0 |
| 20260906144020 | 32 | 200 | 1.6 | 6.4 | 0.00 | 0.00 | 0.00 | 60 | 1016.0 |
| 20260906143020 | 32 | 279 | 1.6 | 6.4 | 0.00 | 0.00 | 0.00 | 59 | 1016.1 |
| 20260906142021 | 31 | 257 | 1.6 | 4.8 | 0.00 | 0.00 | 0.00 | 63 | 1016.2 |
| 20260906141021 | 31 | 289 | 1.6 | 3.2 | 0.00 | 0.00 | 0.00 | 63 | 1016.2 |
| 20260906140021 | 30 | 278 | 1.6 | 3.2 | 0.00 | 0.00 | 0.00 | 66 | 1016.1 |
| 20260906135018 | 30 | 204 | 3.2 | 11.3 | 0.00 | 0.00 | 0.00 | 69 | 1016.1 |
| 20260906134021 | 29 | 156 | 1.6 | 4.8 | 0.00 | 0.00 | 0.00 | 71 | 1016.1 |
| 20260906133042 | 29 | 159 | 1.6 | 4.8 | 0.00 | 0.00 | 0.00 | 71 | 1016.1 |
| 20260906132019 | 28 | 159 | 1.6 | 4.8 | 0.00 | 0.00 | 0.00 | 72 | 1016.2 |
| 20260906131019 | 28 | 219 | 1.6 | 3.2 | 0.00 | 0.00 | 0.00 | 74 | 1016.2 |
| 20260906130019 | 27 | 221 | 0.0 | 1.6 | 0.00 | 0.00 | 0.00 | 76 | 1016.0 |
| 20260906125039 | 27 | 220 | 1.6 | 3.2 | 0.00 | 0.00 | 0.00 | 78 | 1016.0 |
| 20260906124019 | 26 | 187 | 0.0 | 1.6 | 0.00 | 0.00 | 0.00 | 80 | 1015.9 |
| 20260906123020 | 26 | 0.0 | 0.0 | 0.00 | 0.00 | 0.00 | 81 | 1015.9 | |
| 20260906122039 | 26 | 199 | 0.0 | 1.6 | 0.00 | 0.00 | 0.00 | 80 | 1015.8 |
| 20260906121039 | 26 | 216 | 0.0 | 1.6 | 0.00 | 0.00 | 0.00 | 80 | 1015.6 |
| 20260906120020 | 26 | 243 | 0.0 | 0.0 | 0.00 | 0.00 | 0.00 | 79 | 1015.6 |
| 20260906115020 | 26 | 242 | 0.0 | 1.6 | 0.00 | 0.00 | 0.00 | 79 | 1015.6 |
| 20260906114020 | 26 | 176 | 0.0 | 1.6 | 0.00 | 0.00 | 0.00 | 79 | 1015.5 |
| 20260906113041 | 26 | 197 | 1.6 | 3.2 | 0.00 | 0.00 | 0.00 | 79 | 1015.4 |
| 20260906112021 | 26 | 211 | 0.0 | 0.0 | 0.00 | 0.00 | 0.00 | 79 | 1015.4 |
| 20260906111021 | 26 | 0.0 | 0.0 | 0.00 | 0.00 | 0.00 | 79 | 1015.3 | |
| 20260906110021 | 26 | 243 | 0.0 | 0.0 | 0.00 | 0.00 | 0.00 | 79 | 1015.2 |
| 20260906105041 | 26 | 201 | 0.0 | 1.6 | 0.00 | 0.00 | 0.00 | 79 | 1015.2 |
| 20260906104041 | 26 | 0.0 | 0.0 | 0.00 | 0.00 | 0.00 | 79 | 1015.1 | |
| 20260906103021 | 26 | 0.0 | 0.0 | 0.00 | 0.00 | 0.00 | 78 | 1015.0 | |
| 20260906102041 | 27 | 183 | 0.0 | 1.6 | 0.00 | 0.00 | 0.00 | 78 | 1015.0 |
| 20260906101022 | 27 | 242 | 0.0 | 1.6 | 0.00 | 0.00 | 0.00 | 78 | 1015.0 |
| 20260906100022 | 27 | 214 | 0.0 | 1.6 | 0.00 | 0.00 | 0.00 | 77 | 1015.0 |
| 20260906095022 | 27 | 173 | 0.0 | 3.2 | 0.00 | 0.00 | 0.00 | 77 | 1014.9 |
| 20260906094042 | 27 | 0.0 | 0.0 | 0.00 | 0.00 | 0.00 | 77 | 1014.8 | |
| 20260906093022 | 27 | 203 | 0.0 | 0.0 | 0.00 | 0.00 | 0.00 | 77 | 1014.7 |
| 20260906092022 | 27 | 0.0 | 0.0 | 0.00 | 0.00 | 0.00 | 76 | 1014.6 | |
| 20260906091023 | 27 | 252 | 0.0 | 1.6 | 0.00 | 0.00 | 0.00 | 76 | 1014.6 |
| 20260906090023 | 27 | 239 | 1.6 | 3.2 | 0.00 | 0.00 | 0.00 | 76 | 1014.5 |
| 20260906085023 | 27 | 205 | 1.6 | 3.2 | 0.00 | 0.00 | 0.00 | 75 | 1014.4 |
| 20260906084023 | 27 | 217 | 1.6 | 3.2 | 0.00 | 0.00 | 0.00 | 75 | 1014.4 |
| 20260906083024 | 27 | 256 | 1.6 | 3.2 | 0.00 | 0.00 | 0.00 | 75 | 1014.3 |
| 20260906082044 | 27 | 242 | 1.6 | 4.8 | 0.00 | 0.00 | 0.00 | 75 | 1014.3 |
| 20260906081044 | 27 | 201 | 1.6 | 3.2 | 0.00 | 0.00 | 0.00 | 75 | 1014.3 |
| 20260906080025 | 27 | 211 | 0.0 | 1.6 | 0.00 | 0.00 | 0.00 | 74 | 1014.5 |
| 20260906075059 | 27 | 179 | 1.6 | 3.2 | 0.00 | 0.00 | 0.00 | 74 | 1014.5 |
| 20260906074025 | 28 | 0.0 | 0.0 | 0.00 | 0.00 | 0.00 | 73 | 1014.4 | |
| 20260906073044 | 28 | 298 | 0.0 | 1.6 | 0.00 | 0.00 | 0.00 | 72 | 1014.4 |
| 20260906072025 | 28 | 261 | 0.0 | 1.6 | 0.00 | 0.00 | 0.00 | 71 | 1014.6 |
| 20260906071025 | 28 | 236 | 0.0 | 1.6 | 0.00 | 0.00 | 0.00 | 71 | 1014.7 |
| 20260906070025 | 28 | 195 | 0.0 | 3.2 | 0.00 | 0.00 | 0.00 | 70 | 1014.7 |
| 20260906065025 | 28 | 197 | 0.0 | 1.6 | 0.00 | 0.00 | 0.00 | 69 | 1014.7 |
| 20260906064025 | 28 | 208 | 1.6 | 4.8 | 0.00 | 0.00 | 0.00 | 69 | 1014.7 |
| 20260906063025 | 28 | 211 | 1.6 | 3.2 | 0.00 | 0.00 | 0.00 | 69 | 1014.6 |
| 20260906062045 | 28 | 184 | 1.6 | 4.8 | 0.00 | 0.00 | 0.00 | 68 | 1014.6 |
| 20260906061026 | 28 | 215 | 1.6 | 3.2 | 0.00 | 0.00 | 0.00 | 68 | 1014.7 |
| 20260906060026 | 29 | 194 | 1.6 | 3.2 | 0.00 | 0.00 | 0.00 | 67 | 1014.7 |
| 20260906055026 | 29 | 191 | 0.0 | 3.2 | 0.00 | 0.00 | 0.00 | 67 | 1014.7 |
| 20260906054026 | 29 | 213 | 0.0 | 1.6 | 0.00 | 0.00 | 0.00 | 66 | 1014.7 |
| 20260906053027 | 29 | 272 | 1.6 | 3.2 | 0.00 | 0.00 | 0.00 | 66 | 1014.6 |
| 20260906052027 | 30 | 228 | 1.6 | 3.2 | 0.00 | 0.00 | 0.00 | 66 | 1014.6 |
| 20260906051047 | 30 | 182 | 1.6 | 4.8 | 0.00 | 0.00 | 0.00 | 65 | 1014.7 |
| 20260906050047 | 30 | 218 | 1.6 | 6.4 | 0.00 | 0.00 | 0.00 | 64 | 1014.7 |
| 20260906045027 | 30 | 188 | 1.6 | 4.8 | 0.00 | 0.00 | 0.00 | 64 | 1014.7 |
| 20260906044028 | 30 | 195 | 3.2 | 4.8 | 0.00 | 0.00 | 0.00 | 63 | 1014.7 |
| 20260906043048 | 30 | 179 | 3.2 | 6.4 | 0.00 | 0.00 | 0.00 | 63 | 1014.7 |
| 20260906042048 | 30 | 214 | 1.6 | 4.8 | 0.00 | 0.00 | 0.00 | 62 | 1014.6 |
| 20260906041028 | 30 | 213 | 1.6 | 3.2 | 0.00 | 0.00 | 0.00 | 62 | 1014.6 |
| 20260906040020 | 30 | 221 | 1.6 | 6.4 | 0.00 | 0.00 | 0.00 | 62 | 1014.6 |
| 20260906035022 | 30 | 238 | 1.6 | 8.0 | 0.00 | 0.00 | 0.00 | 61 | 1014.6 |
| 20260906034017 | 31 | 232 | 1.6 | 6.4 | 0.00 | 0.00 | 0.00 | 60 | 1014.6 |
| 20260906033017 | 31 | 192 | 3.2 | 6.4 | 0.00 | 0.00 | 0.00 | 59 | 1014.5 |
| 20260906032018 | 31 | 237 | 1.6 | 4.8 | 0.00 | 0.00 | 0.00 | 58 | 1014.6 |
| 20260906031021 | 31 | 275 | 1.6 | 4.8 | 0.00 | 0.00 | 0.00 | 57 | 1014.7 |
| 20260906030021 | 31 | 239 | 1.6 | 4.8 | 0.00 | 0.00 | 0.00 | 57 | 1014.6 |
| 20260906025018 | 31 | 223 | 3.2 | 6.4 | 0.00 | 0.00 | 0.00 | 56 | 1014.5 |
| 20260906024018 | 31 | 179 | 3.2 | 8.0 | 0.00 | 0.00 | 0.00 | 56 | 1014.3 |
| 20260906023038 | 31 | 198 | 3.2 | 8.0 | 0.00 | 0.00 | 0.00 | 55 | 1014.2 |
| 20260906022021 | 32 | 209 | 1.6 | 6.4 | 0.00 | 0.00 | 0.00 | 55 | 1014.0 |
| 20260906021019 | 32 | 192 | 3.2 | 9.7 | 0.00 | 0.00 | 0.00 | 54 | 1013.9 |
| 20260906020019 | 32 | 185 | 3.2 | 9.7 | 0.00 | 0.00 | 0.00 | 53 | 1013.8 |
| 20260906015019 | 33 | 207 | 3.2 | 11.3 | 0.00 | 0.00 | 0.00 | 52 | 1013.7 |
| 20260906014019 | 33 | 201 | 4.8 | 17.7 | 0.00 | 0.00 | 0.00 | 50 | 1013.5 |
| 20260906013019 | 34 | 174 | 6.4 | 14.5 | 0.00 | 0.00 | 0.00 | 48 | 1013.3 |
| 20260906012019 | 35 | 191 | 4.8 | 11.3 | 0.00 | 0.00 | 0.00 | 47 | 1013.1 |
| 20260906011020 | 35 | 196 | 3.2 | 11.3 | 0.00 | 0.00 | 0.00 | 44 | 1012.9 |
| 20260906010020 | 35 | 273 | 1.6 | 4.8 | 0.00 | 0.00 | 0.00 | 43 | 1012.8 |
| 20260906005020 | 35 | 223 | 3.2 | 9.7 | 0.00 | 0.00 | 0.00 | 42 | 1012.8 |
| 20260906004017 | 36 | 207 | 3.2 | 6.4 | 0.00 | 0.00 | 0.00 | 41 | 1012.7 |
| 20260906003020 | 36 | 209 | 3.2 | 9.7 | 0.00 | 0.00 | 0.00 | 40 | 1012.7 |
| 20260906002021 | 36 | 210 | 3.2 | 8.0 | 0.00 | 0.00 | 0.00 | 39 | 1012.7 |
| 20260906001020 | 36 | 186 | 4.8 | 11.3 | 0.00 | 0.00 | 0.00 | 39 | 1012.7 |
| 20260906000018 | 37 | 175 | 4.8 | 12.9 | 0.00 | 0.00 | 0.00 | 38 | 1012.6 |
| 20260905235018 | 37 | 177 | 3.2 | 8.0 | 0.00 | 0.00 | 0.00 | 38 | 1012.4 |
| 20260905234018 | 37 | 202 | 3.2 | 9.7 | 0.00 | 0.00 | 0.00 | 38 | 1012.5 |
| 20260905233019 | 37 | 218 | 3.2 | 8.0 | 0.00 | 0.00 | 0.00 | 38 | 1012.5 |
| 20260905232018 | 37 | 207 | 6.4 | 11.3 | 0.00 | 0.00 | 0.00 | 37 | 1012.5 |